www.pogodaiklimat.ru

Погода и климат >> Архив погоды >> Украина >> Лубны


ПОГОДА в Лубнах

  • Прогноз погоды в Лубнах
  • Монитор погоды в Лубнах

АРХИВ ПОГОДЫ в Лубнах

Время (UTC), дата Ветер
(напр.,м/с)
 
Видим.   Явления Облачность Т
(С)
Тd
(С)
f
(%)
Тe
(С)
Тes
(С)
Комфортность P
(гПа)
Po
(гПа)
Тmin
(С)
Tmax
(С)
R
(мм)
R24
(мм)
S
(см)
18 16.08 З 3 10 км 10/9 720 м
[Sc Ac und]
+16.7 +13.5 81 +16 +16 1010.5 992.0 +20.5
21 16.08 З 2 10 км 10/9 700 м
[Sc Ac und]
+16.3 +13.5 83 +16 +16 1010.5 992.0
00 17.08 З 1 10 км 10/10 700 м
[Sc]
+15.9 +13.4 85 +17 +17 1010.4 991.8
03 17.08 СЗ 2 10 км {ливн. осадки} 10/10 480 м
[St]
+14.9 +12.9 88 +15 +15 1009.9 991.3
06 17.08 З 3 3000 м слаб. ливневой дождь 10/10 420 м
[Cb cap]
+14.9 +14.2 96 +14 +14 1010.1 991.5 +14.8 0.3
09 17.08 З 2 6000 м дымка {ливн. осадки} 10/10 420 м
[St]
+15.7 +14.1 90 +16 +16 1010.4 991.8
12 17.08 СЗ 3 6000 м дымка {ливн. осадки} 10/10 400 м
[St]
+15.9 +14.3 90 +15 +15 1010.6 992.0
15 17.08 З 4 10 км 10/10 450 м
[Sc]
+15.9 +13.6 86 +15 +15 1011.0 992.4
18 17.08 СЗ 3 10 км 10/10 400 м
[Sc]
+15.1 +12.9 87 +14 +14 1011.6 992.9 +15.9 0.0
21 17.08 З 2 10 км 10/10 450 м
[St]
+15.1 +13.1 88 +15 +15 1011.4 992.8
00 18.08 З 2 10 км 10/10 660 м
[St]
+15.0 +12.8 87 +15 +15 1011.9 993.2
03 18.08 З 2 10 км 9/0
[Ac cast Cc]
+13.3 +11.2 87 +13 +13 1012.3 993.5
06 18.08 СЗ 2 10 км ясно +16.5 +12.3 76 +17 +22 1012.6 994.0 +13.0
09 18.08 ЮЗ 4 10 км 3/3 1000 м
[Cu med, cong]
+20.9 +10.0 50 +23 +29 комфорт 1012.9 994.6
12 18.08 СЗ 4 10 км 8/8 1170 м
[Cu med, cong]
+22.4 +10.6 47 +24 +26 комфорт 1013.3 995.1
15 18.08 СЗ 2 10 км 3/3 1000 м
[Cu med, cong]
+22.4 +10.4 47 +24 +26 комфорт 1014.3 996.0
18 18.08 штиль 0 10 км ясно +17.5 +12.8 74 +18 +18 1015.9 997.3 +23.3
21 18.08 штиль 0 10 км ясно +14.3 +12.1 87 +14 +14 1016.6 997.8
00 19.08 штиль 0 10 км 1/0
[Ac lent]
+13.3 +11.4 88 +13 +13 1017.7 998.8
03 19.08 штиль 0 10 км ясно +12.9 +11.2 89 +12 +12 1018.5 999.6
06 19.08 штиль 0 10 км ясно +20.7 +12.4 59 +23 +30 комфорт 1019.2 1000.8 +12.7
09 19.08 СЗ 2 10 км ясно +24.3 +10.7 42 +25 +39 комфорт 1019.1 1000.9
12 19.08 З 2 10 км ясно +26.8 +11.4 38 +28 +38 жарко 1018.6 1000.5
15 19.08 СЗ 2 10 км ясно +27.4 +12.0 38 +29 +30 жарко 1018.7 1000.7
18 19.08 штиль 0 10 км ясно +21.3 +14.3 64 +24 +24 комфорт 1020.2 1001.8 +28.0
21 19.08 штиль 0 10 км ясно +17.8 +13.2 74 +18 +18 1020.7 1002.1
00 20.08 штиль 0 10 км ясно +15.7 +13.0 84 +15 +15 1021.2 1002.4
03 20.08 штиль 0 10 км ясно +14.8 +12.8 88 +14 +14 1022.2 1003.3
06 20.08 штиль 0 10 км ясно +23.9 +14.0 54 +26 +34 жарко 1022.7 1004.4 +14.8
09 20.08 СЗ 2 10 км 3/3 1000 м
[Cu hum Ci fib]
+27.4 +12.9 41 +29 +38 жарко 1022.4 1004.3
12 20.08 СВ 1 10 км 1/1 1000 м
[Cu hum]
+29.5 +12.5 35 +31 +41 жарко 1021.3 1003.4
15 20.08 СВ 2 10 км ясно +29.5 +12.3 35 +31 +32 жарко 1021.0 1003.1
18 20.08 СВ 1 10 км ясно +22.1 +13.6 59 +25 +25 комфорт 1022.3 1003.9 +29.8
21 20.08 штиль 0 10 км ясно +18.5 +13.2 71 +19 +19 1023.0 1004.4
00 21.08 С 1 10 км ясно +16.3 +12.5 78 +17 +17 1023.1 1004.3
03 21.08 С 1 10 км ясно +15.7 +12.6 82 +16 +16 1023.2 1004.4
06 21.08 СВ 1 10 км ясно +24.0 +13.5 52 +26 +33 жарко 1023.1 1004.8 +15.6
09 21.08 СВ 2 10 км ясно +29.4 +13.0 36 +31 +44 жарко 1022.0 1004.0
12 21.08 СВ 2 10 км ясно +30.8 +10.9 29 +31 +41 жарко 1020.1 1002.2
15 21.08 СВ 1 10 км ясно +31.2 +12.0 31 +32 +34 жарко 1018.9 1001.1
18 21.08 штиль 0 10 км ясно +22.9 +15.2 62 +27 +27 душно 1019.7 1001.4 +31.6
21 21.08 штиль 0 10 км ясно +19.5 +13.7 69 +21 +21 комфорт 1020.4 1001.9
00 22.08 штиль 0 10 км ясно +17.7 +13.3 75 +18 +18 1020.0 1001.4
03 22.08 штиль 0 10 км ясно +16.9 +12.6 76 +17 +17 1020.2 1001.5
06 22.08 СВ 1 10 км 1/0
[Ac lent]
+24.5 +14.8 55 +27 +33 жарко 1020.3 1002.1 +16.9
09 22.08 СЗ 2 10 км 3/1 1000 м
[Cu hum Ci]
+29.4 +12.1 34 +30 +41 жарко 1020.0 1002.1
12 22.08 С 2 10 км 3/1 1000 м
[Cu hum Ci]
+31.2 +12.7 32 +32 +41 жарко 1019.5 1001.7
15 22.08 СЗ 4 10 км 3/1 1000 м
[Cu hum Cc]
+29.0 +17.9 51 +33 +34 очень
душно
1019.7 1001.8
18 22.08 З 3 10 км 3/0
[Cc]
+23.3 +16.2 64 +28 +28 душно 1021.8 1003.5 +31.7
21 22.08 С 3 10 км 1/0
[Ac trans]
+20.3 +15.2 73 +23 +23 комфорт 1022.7 1004.2
00 23.08 С 3 н/о 1/0
[Ac trans]
+17.8 +14.9 83 +18 +18 1023.1 1004.4
03 23.08 С 2 10 км 3/0
[Ac lent Ci fib]
+16.7 +14.8 89 +17 +17 1023.3 1004.5
06 23.08 С 2 10 км 1/0
[Ci fib]
+20.0 +14.9 72 +23 +28 комфорт 1023.3 1004.8 +16.6
09 23.08 СЗ 2 10 км 4/0
[Ac trans Ci fib]
+25.1 +15.3 55 +28 +38 жарко 1023.5 1005.3
12 23.08 С 2 10 км 8/0
[Ci fib]
+28.0 +14.4 43 +30 +38 жарко 1022.5 1004.5
15 23.08 СЗ 2 10 км 8/0
[Ci fib]
+26.7 +15.7 51 +30 +31 душно 1022.6 1004.5

 

Местоположение метеостанции Лубны (Полтавская область, Украина): широта 50.00 долгота 33.02 высота над уровнем моря 158 м.

В архиве по умолчанию представлена погода в Лубнах за последнюю неделю. Архивные данные за месяц целиком и за предыдущие месяцы, начиная с января 2011 года, Вы можете получить, выбрав интересующий диапазон дат из раскрывающегося списка и нажав кнопку "Ввод!".


*Определитесь, кто Вы:
робот инопланетянин человек

Внимание! Время в таблицах - всемирное. Для получения местного времени необходимо прибавить поправку, которая равна 2 ч.

Смотрите также архив погоды в соседних городах и на ближайших метеорологических станциях:

Погода в Веселом Подоле (Полтавская область, Украина) (46 км)
Погода в Прилуках (Черниговская область, Украина) (79 км)
Погода в Золотоноше (Черкасская область, Украина) (79 км)
Погода в Гадяче (Полтавская область, Украина) (80 км)
Погода в Яготине (Киевская область, Украина) (90 км)
Погода в Ромнах (Сумская область, Украина) (91 км)
Погода в Черкассах (Черкасская область, Украина) (95 км)
Погода в Чигирине (Черкасская область, Украина) (105 км)
Погода в Светловодске (Кировоградская область, Украина) (107 км)
Погода в Каневе (Черкасская область, Украина) (112 км)

Пояснения к столбцам:

Ветер - указаны скорость ветра в м/с - средняя за 10 мин, порывы в срок и между сроками (в фигурных скобках) и направление, откуда дует ветер: С - северный, СВ - северо-восточный, В - восточный, ЮВ - юго-восточный, Ю - южный, ЮЗ - юго-западный, З - западный, СЗ - северо-западный.
Видимость - горизонтальная дальность видимости в метрах или километрах. При видимости от 1 до 10 км при отсутствии осадков обычно наблюдается дымка, при ухудшении видимости до 1 км и менее - туман. В сухую погоду видимость может ухудшаться дымом, пылью или мглою.
Явления - указаны атмосферные явления, наблюдавшиеся в срок или в последний час перед сроком; фигурными скобками обозначены явления, наблюдавшиеся между сроками (за 1-3 часа до срока); квадратными скобками обозначены град или гололедные отложения с указанием их диаметра в мм.
Облачность - указаны через наклонную черту общая и нижняя облачность в баллах и высота нижней границы облаков в метрах; квадратными скобками обозначены формы облаков: Ci - перистые, Cs - перисто-слоистые, Cc - перисто-кучевые, Ac - высококучевые, As - высокослоистые, Sc - слоисто-кучевые, Ns - слоисто-дождевые, Cu - кучевые, Cb - кучево-дождевые. Подробнее классификацию облаков см. в Атласе облаков (PDF).
T - Температура воздуха - температура, измеренная на высоте 2 м над землей.
Td - Температура точки росы - температура, при понижении до которой содержащийся в воздухе водяной пар достигнет насыщения.
f - Относительная влажность воздуха - влажноcть воздуха, измеренная на высоте 2 м над землей.
Te - Эффективная температура - температура, которую ощущает одетый по сезону человек в тени. Характеристика душности погоды. При расчете учитывается влияние влажности воздуха и скорости ветра на теплоощущения человека.
Tes - Эффективная температура на солнце - температура, которую ощущает человек, с поправкой на солнечный нагрев. Характеристика знойности погоды. Зависит от высоты солнца над горизонтом, облачности и скорости ветра. Ночью, в пасмурную погоду, а также при ветре 12 м/с и более поправка равна нулю.
P - Атмосферное давление - приведенное к уровню моря атмосферное давление.
Po - Атмосферное давление - измеренное на уровне метеостанции атмосферное давление.
Tmin - Минимальная температура - минимум температуры воздуха на высоте 2 м над землей.
Tmax - Максимальная температура - максимум температуры воздуха на высоте 2 м над землей.
R - Количество осадков - Количество выпавших осадков за период времени, мм. При наведении курсора мыши на число - период времени, за который выпало указанное количество осадков.
R24 - Количество осадков - Количество выпавших осадков за 24 часа, мм.
S - Снежный покров - Высота снежного покрова, см. При наведении курсора мыши на число - состояние снежного покрова и степень покрытия местности в баллах.